EZY76FU EGGD-LGSK

Flight info

Callsign EZY76FU
Flight time 3h 17m
Altitude 35000
Route YORQI DCT NUCHU L607 BIG L15 MOTOX DCT RUCAC DCT LESDO DCT ETINO DCT LASAT DCT DEVDI DCT RIPUS DCT RESIA DCT NIKOL DCT AIOSA DCT PAPIZ DCT DIMIS UL604 YNN UY121 AGH T6 EVIKO
Aircraft A320/M-SDE2E3FGHIJ1RWXYZ/LB1

Departure

Time 2026-05-05 09:09
Airport Bristol Airport (EGGD)

Arrival

Time 2026-05-05 12:26
Airport Skiathos Island National Airport (LGSK)
Time Latitude Longitude Altitude Speed Heading
2026-05-05 09:01 51.38484 -2.71943 607 ft 0 kts 267°
2026-05-05 09:05 51.38484 -2.71946 607 ft 2 kts 268°
2026-05-05 09:05 51.38466 -2.72005 618 ft 8 kts 214°
2026-05-05 09:06 51.38428 -2.72099 612 ft 13 kts 261°
2026-05-05 09:06 51.38423 -2.72218 611 ft 19 kts 266°
2026-05-05 09:06 51.38415 -2.72417 615 ft 16 kts 266°
2026-05-05 09:06 51.38408 -2.72594 624 ft 17 kts 266°
2026-05-05 09:07 51.38400 -2.72810 615 ft 21 kts 266°
2026-05-05 09:07 51.38392 -2.73027 615 ft 18 kts 266°
2026-05-05 09:07 51.38385 -2.73219 615 ft 16 kts 266°
2026-05-05 09:07 51.38311 -2.73343 616 ft 17 kts 186°
2026-05-05 09:08 51.38223 -2.73291 629 ft 13 kts 121°
2026-05-05 09:08 51.38225 -2.73017 629 ft 55 kts 86°
2026-05-05 09:08 51.38263 -2.72019 618 ft 122 kts 86°
2026-05-05 09:08 51.38329 -2.70427 917 ft 150 kts 83°
2026-05-05 09:09 51.38386 -2.68759 1749 ft 150 kts 82°
2026-05-05 09:09 51.38435 -2.67013 2200 ft 166 kts 83°
2026-05-05 09:09 51.38495 -2.65044 2461 ft 188 kts 84°
2026-05-05 09:09 51.38542 -2.62843 2744 ft 213 kts 85°
2026-05-05 09:10 51.38585 -2.60343 3091 ft 237 kts 85°
2026-05-05 09:10 51.38626 -2.57598 3584 ft 254 kts 86°
2026-05-05 09:10 51.38663 -2.54728 4334 ft 261 kts 86°
2026-05-05 09:10 51.38695 -2.51794 5109 ft 266 kts 86°
2026-05-05 09:11 51.38726 -2.48812 5889 ft 270 kts 86°
2026-05-05 09:11 51.38761 -2.45771 6653 ft 276 kts 86°
2026-05-05 09:11 51.38797 -2.42688 7396 ft 279 kts 86°
2026-05-05 09:11 51.38834 -2.39558 8142 ft 283 kts 86°
2026-05-05 09:12 51.38870 -2.36394 8895 ft 286 kts 87°
2026-05-05 09:12 51.38906 -2.33197 9655 ft 289 kts 88°
2026-05-05 09:12 51.38942 -2.29956 10290 ft 297 kts 88°
2026-05-05 09:12 51.38979 -2.26525 10461 ft 320 kts 88°
2026-05-05 09:13 51.39017 -2.22863 10768 ft 335 kts 88°
2026-05-05 09:13 51.39053 -2.19098 11357 ft 341 kts 88°
2026-05-05 09:13 51.39089 -2.15279 12013 ft 344 kts 88°
2026-05-05 09:13 51.39126 -2.11428 12671 ft 348 kts 88°
2026-05-05 09:14 51.39160 -2.07541 13313 ft 351 kts 88°
2026-05-05 09:14 51.39194 -2.03612 13941 ft 354 kts 88°
2026-05-05 09:14 51.39227 -1.99654 14511 ft 357 kts 88°
2026-05-05 09:14 51.39260 -1.95664 15085 ft 360 kts 89°
2026-05-05 09:15 51.39294 -1.91643 15659 ft 362 kts 89°
2026-05-05 09:15 51.39325 -1.87593 16229 ft 365 kts 89°
2026-05-05 09:15 51.39353 -1.83512 16787 ft 368 kts 90°
2026-05-05 09:15 51.39379 -1.79404 17336 ft 371 kts 90°
2026-05-05 09:16 51.39408 -1.75253 17878 ft 374 kts 90°
2026-05-05 09:16 51.39435 -1.71072 18390 ft 377 kts 90°
2026-05-05 09:16 51.39458 -1.66914 18842 ft 380 kts 91°
2026-05-05 09:16 51.39479 -1.62670 19309 ft 383 kts 91°
2026-05-05 09:17 51.39498 -1.58401 19764 ft 385 kts 91°
2026-05-05 09:17 51.39518 -1.54100 20228 ft 388 kts 91°
2026-05-05 09:17 51.39538 -1.49770 20680 ft 390 kts 91°
2026-05-05 09:17 51.39558 -1.45413 21121 ft 393 kts 91°
2026-05-05 09:18 51.39579 -1.41026 21560 ft 395 kts 91°
2026-05-05 09:18 51.39597 -1.36613 22003 ft 398 kts 91°
2026-05-05 09:18 51.39612 -1.32173 22429 ft 400 kts 91°
2026-05-05 09:18 51.39622 -1.27704 22839 ft 403 kts 91°
2026-05-05 09:19 51.39627 -1.23206 23254 ft 405 kts 91°
2026-05-05 09:19 51.39631 -1.18680 23639 ft 408 kts 91°
2026-05-05 09:19 51.39618 -1.14119 23972 ft 410 kts 93°
2026-05-05 09:19 51.39496 -1.09550 24303 ft 412 kts 95°
2026-05-05 09:20 51.39277 -1.04960 24632 ft 414 kts 97°
2026-05-05 09:20 51.39007 -1.00357 24960 ft 416 kts 97°
2026-05-05 09:20 51.38718 -0.95732 25280 ft 418 kts 98°
2026-05-05 09:20 51.38434 -0.91088 25598 ft 421 kts 97°
2026-05-05 09:21 51.38163 -0.86403 25912 ft 423 kts 97°
2026-05-05 09:21 51.37904 -0.81709 26228 ft 425 kts 97°
2026-05-05 09:21 51.37651 -0.76981 26519 ft 427 kts 97°
2026-05-05 09:21 51.37401 -0.72232 26816 ft 430 kts 97°
2026-05-05 09:22 51.37152 -0.67514 27115 ft 432 kts 97°
2026-05-05 09:22 51.36895 -0.62723 27418 ft 434 kts 98°
2026-05-05 09:22 51.36634 -0.57897 27720 ft 436 kts 98°
2026-05-05 09:22 51.36367 -0.53048 28015 ft 438 kts 98°
2026-05-05 09:23 51.36096 -0.48187 28306 ft 440 kts 98°
2026-05-05 09:23 51.35821 -0.43292 28594 ft 442 kts 98°
2026-05-05 09:23 51.35546 -0.38381 28873 ft 444 kts 98°
2026-05-05 09:23 51.35268 -0.33452 29145 ft 446 kts 98°
2026-05-05 09:24 51.34983 -0.28503 29397 ft 448 kts 98°
2026-05-05 09:24 51.34694 -0.23529 29663 ft 450 kts 98°
2026-05-05 09:24 51.34403 -0.18537 29914 ft 452 kts 98°
2026-05-05 09:24 51.34109 -0.13521 30138 ft 454 kts 98°
2026-05-05 09:25 51.33812 -0.08491 30340 ft 455 kts 98°
2026-05-05 09:25 51.33509 -0.03450 30613 ft 455 kts 98°
2026-05-05 09:25 51.33125 0.01561 30916 ft 452 kts 104°
2026-05-05 09:25 51.32326 0.06394 31201 ft 448 kts 112°
2026-05-05 09:26 51.31174 0.11011 31479 ft 447 kts 115°
2026-05-05 09:26 51.29998 0.15604 31761 ft 447 kts 115°
2026-05-05 09:26 51.28831 0.20202 32035 ft 446 kts 115°
2026-05-05 09:26 51.27682 0.24735 32305 ft 446 kts 115°
2026-05-05 09:27 51.26518 0.29326 32701 ft 446 kts 115°
2026-05-05 09:27 51.25349 0.33915 32979 ft 446 kts 115°
2026-05-05 09:27 51.24176 0.38507 33251 ft 447 kts 115°
2026-05-05 09:27 51.22999 0.43097 33518 ft 447 kts 115°
2026-05-05 09:28 51.21821 0.47683 33786 ft 447 kts 115°
2026-05-05 09:28 51.20639 0.52266 34043 ft 447 kts 115°
2026-05-05 09:28 51.19454 0.56843 34269 ft 447 kts 115°
2026-05-05 09:28 51.18266 0.61429 34467 ft 447 kts 115°
2026-05-05 09:29 51.17080 0.66010 34649 ft 447 kts 115°
2026-05-05 09:29 51.15892 0.70595 34832 ft 448 kts 115°
2026-05-05 09:29 51.14703 0.75172 34996 ft 448 kts 115°
2026-05-05 09:30 51.12321 0.84303 34973 ft 445 kts 115°
2026-05-05 09:30 51.09940 0.93395 34974 ft 444 kts 115°
2026-05-05 09:31 51.07548 1.02441 34974 ft 444 kts 115°
2026-05-05 09:31 51.05151 1.11492 34973 ft 444 kts 115°
2026-05-05 09:32 51.02753 1.20540 34971 ft 444 kts 116°
2026-05-05 09:32 51.00347 1.29570 34965 ft 444 kts 116°
2026-05-05 09:33 50.97932 1.38591 34958 ft 444 kts 116°
2026-05-05 09:33 50.95515 1.47596 34950 ft 444 kts 116°
2026-05-05 09:34 50.93092 1.56588 34954 ft 444 kts 116°
2026-05-05 09:34 50.90656 1.65568 34954 ft 443 kts 116°
2026-05-05 09:35 50.87833 1.74179 34958 ft 437 kts 129°
2026-05-05 09:35 50.83727 1.81139 34958 ft 432 kts 140°
2026-05-05 09:35 50.81549 1.84412 34957 ft 432 kts 140°
2026-05-05 09:36 50.77230 1.90905 34954 ft 431 kts 140°
2026-05-05 09:36 50.72883 1.97440 34950 ft 431 kts 140°
2026-05-05 09:37 50.68543 2.03947 34947 ft 430 kts 140°
2026-05-05 09:37 50.64204 2.10430 34937 ft 429 kts 140°
2026-05-05 09:38 50.59871 2.16893 34936 ft 429 kts 140°
2026-05-05 09:38 50.55544 2.23334 34934 ft 428 kts 140°
2026-05-05 09:39 50.51218 2.29746 34933 ft 427 kts 140°
2026-05-05 09:39 50.46898 2.36139 34932 ft 426 kts 140°
2026-05-05 09:40 50.42578 2.42508 34925 ft 426 kts 140°
2026-05-05 09:40 50.38286 2.48823 34921 ft 426 kts 140°
2026-05-05 09:41 50.33969 2.55154 34917 ft 425 kts 140°
2026-05-05 09:41 50.29621 2.61515 34917 ft 425 kts 140°
2026-05-05 09:42 50.25334 2.67783 34915 ft 424 kts 140°
2026-05-05 09:42 50.21019 2.74070 34919 ft 424 kts 140°
2026-05-05 09:43 50.16707 2.80339 34916 ft 423 kts 140°
2026-05-05 09:43 50.12397 2.86588 34926 ft 423 kts 140°
2026-05-05 09:44 50.08086 2.92815 34923 ft 422 kts 140°
2026-05-05 09:44 50.03777 2.99015 34917 ft 422 kts 141°
2026-05-05 09:45 49.99469 3.05198 34921 ft 421 kts 140°
2026-05-05 09:45 49.95168 3.11370 34918 ft 421 kts 140°
2026-05-05 09:46 49.90868 3.17524 34906 ft 420 kts 141°
2026-05-05 09:46 49.86575 3.23651 34906 ft 419 kts 141°
2026-05-05 09:47 49.82282 3.29756 34897 ft 418 kts 141°
2026-05-05 09:47 49.78407 3.36519 34891 ft 422 kts 132°
2026-05-05 09:48 49.74757 3.43627 34886 ft 422 kts 132°
2026-05-05 09:48 49.71105 3.50720 34888 ft 422 kts 132°
2026-05-05 09:49 49.67450 3.57798 34890 ft 421 kts 132°
2026-05-05 09:49 49.63815 3.64808 34878 ft 421 kts 132°
2026-05-05 09:50 49.60155 3.71841 34887 ft 420 kts 132°
2026-05-05 09:50 49.56500 3.78852 34887 ft 419 kts 132°
2026-05-05 09:51 49.52852 3.85850 34874 ft 419 kts 132°
2026-05-05 09:51 49.49201 3.92826 34873 ft 418 kts 133°
2026-05-05 09:52 49.45543 3.99768 34875 ft 418 kts 133°
2026-05-05 09:52 49.41890 4.06703 34872 ft 417 kts 133°
2026-05-05 09:53 49.38246 4.13622 34872 ft 416 kts 133°
2026-05-05 09:53 49.34597 4.20519 34871 ft 416 kts 133°
2026-05-05 09:54 49.30947 4.27387 34874 ft 415 kts 133°
2026-05-05 09:54 49.27319 4.34191 34874 ft 415 kts 133°
2026-05-05 09:55 49.23671 4.41027 34871 ft 414 kts 133°
2026-05-05 09:55 49.20031 4.47855 34867 ft 414 kts 133°
2026-05-05 09:56 49.16382 4.54661 34864 ft 414 kts 133°
2026-05-05 09:56 49.12726 4.61446 34862 ft 413 kts 133°
2026-05-05 09:57 49.09076 4.68215 34854 ft 413 kts 133°
2026-05-05 09:57 49.05420 4.74980 34856 ft 413 kts 133°
2026-05-05 09:58 49.01756 4.81735 34852 ft 413 kts 133°
2026-05-05 09:58 48.98092 4.88479 34849 ft 413 kts 133°
2026-05-05 09:59 48.94420 4.95222 34861 ft 414 kts 134°
2026-05-05 09:59 48.90738 5.01963 34860 ft 414 kts 134°
2026-05-05 10:00 48.87817 5.07726 34854 ft 416 kts 127°
2026-05-05 10:00 48.84122 5.16266 34850 ft 416 kts 127°
2026-05-05 10:01 48.80926 5.23600 34852 ft 417 kts 128°
2026-05-05 10:01 48.78231 5.29738 34850 ft 417 kts 128°
2026-05-05 10:02 48.75009 5.37064 34854 ft 418 kts 128°
2026-05-05 10:02 48.71814 5.44341 34861 ft 418 kts 128°
2026-05-05 10:03 48.68593 5.51659 34865 ft 418 kts 128°
2026-05-05 10:03 48.65358 5.58955 34885 ft 417 kts 128°
2026-05-05 10:04 48.62128 5.66230 34883 ft 417 kts 128°
2026-05-05 10:04 48.58904 5.73493 34881 ft 416 kts 128°
2026-05-05 10:05 48.55679 5.80738 34893 ft 416 kts 128°
2026-05-05 10:05 48.52448 5.87968 34890 ft 415 kts 129°
2026-05-05 10:06 48.49214 5.95175 34892 ft 415 kts 129°
2026-05-05 10:06 48.45980 6.02367 34885 ft 414 kts 129°
2026-05-05 10:07 48.42748 6.09541 34887 ft 414 kts 129°
2026-05-05 10:07 48.39515 6.16706 34885 ft 414 kts 129°
2026-05-05 10:08 48.36281 6.23854 34885 ft 413 kts 129°
2026-05-05 10:08 48.33059 6.30937 34879 ft 413 kts 129°
2026-05-05 10:09 48.29811 6.38054 34872 ft 413 kts 129°
2026-05-05 10:09 48.26562 6.45165 34872 ft 413 kts 129°
2026-05-05 10:10 48.23313 6.52279 34868 ft 413 kts 129°
2026-05-05 10:10 48.20058 6.59370 34866 ft 413 kts 129°
2026-05-05 10:11 48.16799 6.66446 34867 ft 413 kts 129°
2026-05-05 10:11 48.13511 6.73481 34864 ft 412 kts 130°
2026-05-05 10:12 48.10157 6.80428 34862 ft 411 kts 131°
2026-05-05 10:12 48.06818 6.87311 34868 ft 412 kts 131°
2026-05-05 10:13 48.03468 6.94244 34871 ft 412 kts 130°
2026-05-05 10:13 48.00112 7.01182 34874 ft 412 kts 130°
2026-05-05 10:14 47.96755 7.08113 34877 ft 412 kts 131°
2026-05-05 10:14 47.93391 7.15030 34873 ft 412 kts 130°
2026-05-05 10:15 47.90019 7.21944 34872 ft 412 kts 131°
2026-05-05 10:15 47.86645 7.28850 34874 ft 412 kts 131°
2026-05-05 10:16 47.83259 7.35745 34877 ft 412 kts 131°
2026-05-05 10:16 47.79874 7.42636 34878 ft 412 kts 131°
2026-05-05 10:17 47.76508 7.49466 34875 ft 412 kts 131°
2026-05-05 10:17 47.73111 7.56333 34876 ft 413 kts 131°
2026-05-05 10:18 47.69709 7.63205 34876 ft 413 kts 131°
2026-05-05 10:18 47.66304 7.70079 34875 ft 414 kts 131°
2026-05-05 10:19 47.62893 7.76950 34876 ft 414 kts 131°
2026-05-05 10:19 47.59474 7.83816 34879 ft 414 kts 131°
2026-05-05 10:20 47.56040 7.90670 34878 ft 414 kts 131°
2026-05-05 10:20 47.52605 7.97529 34880 ft 415 kts 131°
2026-05-05 10:21 47.49164 8.04386 34884 ft 415 kts 131°
2026-05-05 10:21 47.45713 8.11235 34884 ft 416 kts 131°
2026-05-05 10:22 47.42255 8.18072 34889 ft 416 kts 131°
2026-05-05 10:22 47.38790 8.24929 34886 ft 417 kts 131°
2026-05-05 10:23 47.35322 8.31787 34886 ft 417 kts 131°
2026-05-05 10:23 47.31837 8.38635 34883 ft 418 kts 131°
2026-05-05 10:24 47.28342 8.45477 34877 ft 418 kts 131°
2026-05-05 10:24 47.24872 8.52277 34878 ft 419 kts 131°
2026-05-05 10:25 47.21438 8.59205 34875 ft 420 kts 130°
2026-05-05 10:25 47.18021 8.66169 34868 ft 420 kts 130°
2026-05-05 10:26 47.14596 8.73124 34877 ft 420 kts 130°
2026-05-05 10:26 47.11149 8.80064 34880 ft 421 kts 131°
2026-05-05 10:27 47.07684 8.87002 34884 ft 421 kts 131°
2026-05-05 10:27 47.04217 8.93939 34883 ft 422 kts 131°
2026-05-05 10:28 47.00742 9.00865 34887 ft 422 kts 131°
2026-05-05 10:28 46.97263 9.07785 34888 ft 422 kts 131°
2026-05-05 10:29 46.93806 9.14648 34890 ft 422 kts 131°
2026-05-05 10:29 46.90313 9.21558 34895 ft 423 kts 131°
2026-05-05 10:30 46.86812 9.28474 34902 ft 423 kts 131°
2026-05-05 10:30 46.83305 9.35380 34903 ft 424 kts 131°
2026-05-05 10:31 46.79784 9.42297 34910 ft 424 kts 131°
2026-05-05 10:31 46.76260 9.49210 34923 ft 425 kts 131°
2026-05-05 10:32 46.72724 9.56124 34934 ft 426 kts 131°
2026-05-05 10:32 46.69179 9.63042 34949 ft 426 kts 131°
2026-05-05 10:33 46.65619 9.69962 34968 ft 428 kts 131°
2026-05-05 10:33 46.62080 9.76848 34973 ft 428 kts 131°
2026-05-05 10:34 46.58504 9.83775 34974 ft 428 kts 131°
2026-05-05 10:34 46.54925 9.90698 34976 ft 429 kts 131°
2026-05-05 10:35 46.51329 9.97614 34975 ft 429 kts 131°
2026-05-05 10:35 46.47716 10.04520 34979 ft 429 kts 132°
2026-05-05 10:36 46.43954 10.11235 34981 ft 429 kts 135°
2026-05-05 10:36 46.40069 10.17790 34984 ft 429 kts 135°
2026-05-05 10:37 46.36177 10.24348 34990 ft 430 kts 135°
2026-05-05 10:37 46.32305 10.30961 34999 ft 431 kts 135°
2026-05-05 10:38 46.28443 10.37584 34996 ft 431 kts 135°
2026-05-05 10:38 46.24560 10.44206 35001 ft 432 kts 135°
2026-05-05 10:39 46.20669 10.50824 35009 ft 433 kts 135°
2026-05-05 10:39 46.16764 10.57433 35006 ft 433 kts 135°
2026-05-05 10:40 46.12851 10.64040 35006 ft 433 kts 135°
2026-05-05 10:40 46.08960 10.70604 35003 ft 434 kts 135°
2026-05-05 10:41 46.05039 10.77214 35009 ft 434 kts 135°
2026-05-05 10:41 46.01108 10.83818 35003 ft 434 kts 135°
2026-05-05 10:42 45.95195 10.93699 35001 ft 435 kts 135°
2026-05-05 10:43 45.91247 11.00282 35001 ft 435 kts 135°
2026-05-05 10:43 45.87297 11.06858 35000 ft 435 kts 135°
2026-05-05 10:44 45.83337 11.13434 35006 ft 436 kts 135°
2026-05-05 10:44 45.79372 11.20004 35010 ft 435 kts 136°
2026-05-05 10:45 45.75405 11.26558 35009 ft 436 kts 135°
2026-05-05 10:45 45.71466 11.33068 35006 ft 435 kts 135°
2026-05-05 10:46 45.67495 11.39599 35004 ft 435 kts 136°
2026-05-05 10:46 45.63517 11.46130 35006 ft 436 kts 136°
2026-05-05 10:47 45.59528 11.52653 35004 ft 436 kts 136°
2026-05-05 10:47 45.55529 11.59170 35005 ft 436 kts 136°
2026-05-05 10:48 45.51526 11.65687 35007 ft 437 kts 136°
2026-05-05 10:48 45.47516 11.72211 35009 ft 438 kts 136°
2026-05-05 10:49 45.43500 11.78735 35012 ft 438 kts 136°
2026-05-05 10:49 45.39479 11.85251 35016 ft 438 kts 136°
2026-05-05 10:50 45.35449 11.91756 35014 ft 438 kts 136°
2026-05-05 10:50 45.31448 11.98189 35008 ft 437 kts 136°
2026-05-05 10:51 45.27415 12.04664 35000 ft 438 kts 136°
2026-05-05 10:51 45.23373 12.11142 34999 ft 439 kts 136°
2026-05-05 10:52 45.19320 12.17627 35001 ft 440 kts 136°
2026-05-05 10:52 45.15267 12.24093 34989 ft 439 kts 136°
2026-05-05 10:53 45.11209 12.30554 34993 ft 439 kts 136°
2026-05-05 10:53 45.07144 12.37008 34991 ft 440 kts 136°
2026-05-05 10:54 45.03067 12.43467 34997 ft 440 kts 136°
2026-05-05 10:54 44.98981 12.49920 34998 ft 441 kts 136°
2026-05-05 10:55 44.94885 12.56361 34997 ft 441 kts 136°
2026-05-05 10:55 44.90786 12.62819 35001 ft 442 kts 136°
2026-05-05 10:56 44.86686 12.69276 34999 ft 442 kts 136°
2026-05-05 10:56 44.82572 12.75718 35005 ft 442 kts 136°
2026-05-05 10:57 44.79144 12.81072 35003 ft 443 kts 136°
2026-05-05 10:57 44.75010 12.87513 35008 ft 444 kts 136°
2026-05-05 10:58 44.70877 12.93964 35010 ft 444 kts 136°
2026-05-05 10:58 44.66728 13.00402 35012 ft 444 kts 136°
2026-05-05 10:59 44.62574 13.06829 35016 ft 444 kts 136°
2026-05-05 10:59 44.58422 13.13258 35025 ft 445 kts 136°
2026-05-05 11:00 44.54259 13.19676 35023 ft 445 kts 136°
2026-05-05 11:00 44.50090 13.26088 35027 ft 445 kts 136°
2026-05-05 11:01 44.45909 13.32498 35025 ft 446 kts 136°
2026-05-05 11:01 44.41743 13.38865 35031 ft 447 kts 136°
2026-05-05 11:02 44.37545 13.45274 35036 ft 447 kts 136°
2026-05-05 11:02 44.33343 13.51688 35029 ft 448 kts 136°
2026-05-05 11:03 44.29132 13.58103 35032 ft 448 kts 136°
2026-05-05 11:03 44.24913 13.64505 35029 ft 448 kts 136°
2026-05-05 11:04 44.20690 13.70916 35023 ft 449 kts 135°
2026-05-05 11:04 44.16624 13.77555 35043 ft 452 kts 133°
2026-05-05 11:05 44.12612 13.84346 35039 ft 455 kts 133°
2026-05-05 11:05 44.08581 13.91071 35039 ft 456 kts 133°
2026-05-05 11:06 44.04477 13.97789 35039 ft 456 kts 134°
2026-05-05 11:06 44.00362 14.04484 35036 ft 456 kts 134°
2026-05-05 11:07 43.96254 14.11176 35035 ft 455 kts 133°
2026-05-05 11:07 43.92147 14.17865 35032 ft 455 kts 133°
2026-05-05 11:08 43.88039 14.24546 35030 ft 455 kts 134°
2026-05-05 11:08 43.83920 14.31213 35027 ft 456 kts 134°
2026-05-05 11:09 43.79787 14.37873 35028 ft 456 kts 134°
2026-05-05 11:09 43.75657 14.44532 35024 ft 456 kts 134°
2026-05-05 11:10 43.71552 14.51141 35028 ft 456 kts 134°
2026-05-05 11:10 43.67408 14.57783 35030 ft 456 kts 134°
2026-05-05 11:11 43.63263 14.64415 35030 ft 456 kts 134°
2026-05-05 11:11 43.59120 14.71040 35026 ft 456 kts 134°
2026-05-05 11:12 43.54969 14.77658 35024 ft 456 kts 134°
2026-05-05 11:12 43.50812 14.84263 35024 ft 456 kts 134°
2026-05-05 11:13 43.46648 14.90867 35025 ft 457 kts 134°
2026-05-05 11:13 43.42479 14.97461 35016 ft 457 kts 134°
2026-05-05 11:14 43.38300 15.04053 35015 ft 457 kts 134°
2026-05-05 11:14 43.34120 15.10648 35023 ft 458 kts 134°
2026-05-05 11:15 43.29957 15.17191 35023 ft 458 kts 135°
2026-05-05 11:15 43.25751 15.23774 35025 ft 459 kts 135°
2026-05-05 11:16 43.21539 15.30360 35040 ft 460 kts 135°
2026-05-05 11:16 43.17319 15.36948 35036 ft 460 kts 135°
2026-05-05 11:17 43.13090 15.43534 35036 ft 461 kts 135°
2026-05-05 11:17 43.08847 15.50127 35036 ft 462 kts 135°
2026-05-05 11:18 43.04596 15.56717 35039 ft 462 kts 135°
2026-05-05 11:18 43.00334 15.63313 35041 ft 463 kts 135°
2026-05-05 11:19 42.96062 15.69911 35045 ft 464 kts 135°
2026-05-05 11:19 42.91778 15.76512 35048 ft 465 kts 136°
2026-05-05 11:20 42.87477 15.83111 35047 ft 466 kts 136°
2026-05-05 11:20 42.83197 15.89668 35044 ft 466 kts 136°
2026-05-05 11:21 42.78879 15.96273 35043 ft 467 kts 136°
2026-05-05 11:21 42.74550 16.02880 35044 ft 468 kts 136°
2026-05-05 11:22 42.70211 16.09494 35050 ft 469 kts 136°
2026-05-05 11:22 42.65860 16.16105 35047 ft 469 kts 136°
2026-05-05 11:23 42.61497 16.22713 35049 ft 470 kts 136°
2026-05-05 11:23 42.57130 16.29325 35052 ft 471 kts 136°
2026-05-05 11:24 42.52741 16.35933 35050 ft 472 kts 136°
2026-05-05 11:24 42.48336 16.42548 35049 ft 473 kts 136°
2026-05-05 11:25 42.43929 16.49185 35051 ft 474 kts 136°
2026-05-05 11:25 42.39502 16.55820 35056 ft 475 kts 137°
2026-05-05 11:26 42.35084 16.62408 35056 ft 476 kts 136°
2026-05-05 11:26 42.30631 16.69049 35055 ft 478 kts 136°
2026-05-05 11:27 42.26165 16.75707 35054 ft 479 kts 136°
2026-05-05 11:27 42.21680 16.82360 35057 ft 480 kts 137°
2026-05-05 11:28 42.17187 16.89013 35059 ft 480 kts 136°
2026-05-05 11:28 42.12681 16.95679 35060 ft 481 kts 136°
2026-05-05 11:29 42.08166 17.02348 35067 ft 482 kts 136°
2026-05-05 11:29 42.03637 17.09013 35067 ft 483 kts 136°
2026-05-05 11:30 41.99100 17.15668 35070 ft 483 kts 136°
2026-05-05 11:30 41.94554 17.22319 35072 ft 483 kts 136°
2026-05-05 11:31 41.90123 17.29038 35075 ft 485 kts 133°
2026-05-05 11:31 41.85936 17.36167 35075 ft 487 kts 130°
2026-05-05 11:32 41.81822 17.43381 35077 ft 487 kts 131°
2026-05-05 11:32 41.77630 17.50517 35078 ft 487 kts 131°
2026-05-05 11:33 41.73375 17.57591 35078 ft 488 kts 132°
2026-05-05 11:33 41.69102 17.64661 35081 ft 489 kts 132°
2026-05-05 11:34 41.64842 17.71751 35083 ft 489 kts 131°
2026-05-05 11:34 41.60588 17.78855 35095 ft 489 kts 132°
2026-05-05 11:35 41.56326 17.85938 35101 ft 489 kts 132°
2026-05-05 11:35 41.52051 17.92996 35101 ft 489 kts 132°
2026-05-05 11:36 41.47782 18.00043 35105 ft 488 kts 131°
2026-05-05 11:36 41.43509 18.07081 35108 ft 488 kts 131°
2026-05-05 11:37 41.39231 18.14110 35104 ft 488 kts 131°
2026-05-05 11:37 41.34972 18.21084 35103 ft 489 kts 131°
2026-05-05 11:38 41.30678 18.28102 35099 ft 489 kts 131°
2026-05-05 11:38 41.26377 18.35123 35099 ft 490 kts 131°
2026-05-05 11:39 41.22065 18.42143 35104 ft 491 kts 131°
2026-05-05 11:39 41.17744 18.49160 35106 ft 491 kts 131°
2026-05-05 11:40 41.13414 18.56178 35116 ft 492 kts 131°
2026-05-05 11:40 41.09077 18.63189 35119 ft 492 kts 131°
2026-05-05 11:41 41.04731 18.70191 35125 ft 492 kts 131°
2026-05-05 11:41 41.00388 18.77185 35132 ft 491 kts 131°
2026-05-05 11:42 40.96070 18.84119 35128 ft 491 kts 131°
2026-05-05 11:42 40.91719 18.91075 35130 ft 491 kts 131°
2026-05-05 11:43 40.87635 18.98301 35131 ft 491 kts 123°
2026-05-05 11:43 40.83957 19.05904 35137 ft 491 kts 123°
2026-05-05 11:44 40.80259 19.13477 35131 ft 490 kts 123°
2026-05-05 11:44 40.76553 19.21031 35134 ft 490 kts 123°
2026-05-05 11:45 40.72860 19.28577 35134 ft 489 kts 123°
2026-05-05 11:45 40.69166 19.36113 35124 ft 489 kts 123°
2026-05-05 11:46 40.65489 19.43576 35118 ft 489 kts 123°
2026-05-05 11:46 40.61783 19.51078 35118 ft 489 kts 123°
2026-05-05 11:47 40.58067 19.58572 35114 ft 489 kts 123°
2026-05-05 11:47 40.54350 19.66049 35119 ft 488 kts 123°
2026-05-05 11:48 40.48787 19.77248 35123 ft 488 kts 123°
2026-05-05 11:48 40.45075 19.84701 35131 ft 487 kts 123°
2026-05-05 11:49 40.41384 19.92071 35131 ft 486 kts 123°
2026-05-05 11:49 40.37671 19.99478 35128 ft 486 kts 123°
2026-05-05 11:50 40.33950 20.06865 35119 ft 485 kts 123°
2026-05-05 11:50 40.30232 20.14230 35112 ft 484 kts 123°
2026-05-05 11:51 40.26517 20.21595 35111 ft 485 kts 123°
2026-05-05 11:51 40.22796 20.28946 35113 ft 484 kts 123°
2026-05-05 11:52 40.19071 20.36288 35106 ft 484 kts 123°
2026-05-05 11:52 40.15346 20.43618 35083 ft 484 kts 123°
2026-05-05 11:53 40.13485 20.47272 34839 ft 481 kts 123°
2026-05-05 11:53 40.11632 20.50907 34598 ft 479 kts 123°
2026-05-05 11:53 40.09780 20.54513 34355 ft 477 kts 125°
2026-05-05 11:53 40.07635 20.57802 34125 ft 475 kts 137°
2026-05-05 11:54 40.05080 20.60508 33846 ft 472 kts 149°
2026-05-05 11:54 40.02227 20.62558 33568 ft 467 kts 158°
2026-05-05 11:54 39.99281 20.64340 33308 ft 466 kts 158°
2026-05-05 11:54 39.96346 20.66123 33053 ft 465 kts 158°
2026-05-05 11:55 39.94404 20.67308 32869 ft 465 kts 158°
2026-05-05 11:55 39.91482 20.69091 32613 ft 464 kts 158°
2026-05-05 11:55 39.88563 20.70872 32348 ft 463 kts 158°
2026-05-05 11:55 39.84708 20.73222 32010 ft 461 kts 158°
2026-05-05 11:56 39.81805 20.74986 31756 ft 460 kts 158°
2026-05-05 11:56 39.78907 20.76742 31504 ft 459 kts 158°
2026-05-05 11:56 39.76023 20.78512 31251 ft 458 kts 154°
2026-05-05 11:56 39.73340 20.80748 31001 ft 459 kts 141°
2026-05-05 11:57 39.71768 20.82585 30840 ft 459 kts 133°
2026-05-05 11:57 39.69789 20.85815 30603 ft 455 kts 119°
2026-05-05 11:57 39.68351 20.89439 30350 ft 449 kts 107°
2026-05-05 11:57 39.67398 20.93270 30107 ft 445 kts 101°
2026-05-05 11:58 39.66504 20.97112 29825 ft 444 kts 102°
2026-05-05 11:58 39.65599 21.00930 29548 ft 442 kts 102°
2026-05-05 11:58 39.64691 21.04723 29269 ft 439 kts 102°
2026-05-05 11:58 39.63786 21.08492 28994 ft 436 kts 102°
2026-05-05 11:59 39.62888 21.12239 28716 ft 434 kts 102°
2026-05-05 11:59 39.61997 21.15963 28446 ft 431 kts 102°
2026-05-05 11:59 39.61110 21.19667 28182 ft 429 kts 102°
2026-05-05 11:59 39.60234 21.23343 27921 ft 426 kts 102°
2026-05-05 12:00 39.59359 21.27014 27655 ft 424 kts 102°
2026-05-05 12:00 39.58488 21.30652 27391 ft 421 kts 102°
2026-05-05 12:00 39.57620 21.34273 27139 ft 419 kts 102°
2026-05-05 12:00 39.56757 21.37868 26882 ft 417 kts 102°
2026-05-05 12:01 39.55897 21.41442 26626 ft 414 kts 102°
2026-05-05 12:01 39.55042 21.45000 26368 ft 412 kts 102°
2026-05-05 12:01 39.54191 21.48532 26120 ft 410 kts 103°
2026-05-05 12:01 39.53339 21.52049 25873 ft 409 kts 103°
2026-05-05 12:02 39.52487 21.55553 25624 ft 406 kts 103°
2026-05-05 12:02 39.51643 21.59021 25383 ft 402 kts 103°
2026-05-05 12:02 39.50802 21.62474 25141 ft 401 kts 103°
2026-05-05 12:02 39.49964 21.65912 24904 ft 400 kts 103°
2026-05-05 12:03 39.49127 21.69338 24666 ft 398 kts 103°
2026-05-05 12:03 39.48305 21.72701 24437 ft 396 kts 103°
2026-05-05 12:03 39.47477 21.76089 24202 ft 394 kts 103°
2026-05-05 12:03 39.46651 21.79461 23972 ft 392 kts 104°
2026-05-05 12:04 39.45828 21.82816 23742 ft 390 kts 104°
2026-05-05 12:04 39.45012 21.86150 23492 ft 388 kts 104°
2026-05-05 12:04 39.44200 21.89471 23209 ft 386 kts 104°
2026-05-05 12:04 39.43391 21.92768 22940 ft 384 kts 104°
2026-05-05 12:05 39.42582 21.96049 22675 ft 382 kts 104°
2026-05-05 12:05 39.41776 21.99311 22416 ft 379 kts 104°
2026-05-05 12:05 39.40975 22.02553 22154 ft 377 kts 104°
2026-05-05 12:05 39.40178 22.05773 21891 ft 375 kts 104°
2026-05-05 12:06 39.39382 22.08978 21631 ft 373 kts 104°
2026-05-05 12:06 39.38592 22.12160 21370 ft 371 kts 104°
2026-05-05 12:06 39.37806 22.15326 21127 ft 369 kts 104°
2026-05-05 12:06 39.37023 22.18477 20883 ft 367 kts 104°
2026-05-05 12:07 39.36246 22.21606 20631 ft 365 kts 104°
2026-05-05 12:07 39.35471 22.24715 20378 ft 363 kts 104°
2026-05-05 12:07 39.34711 22.27769 20144 ft 361 kts 104°
2026-05-05 12:07 39.33945 22.30843 19901 ft 359 kts 104°
2026-05-05 12:08 39.33172 22.33941 19660 ft 357 kts 104°
2026-05-05 12:08 39.32421 22.36934 19419 ft 354 kts 104°
2026-05-05 12:08 39.31660 22.39952 19183 ft 352 kts 104°
2026-05-05 12:08 39.30904 22.42952 18947 ft 350 kts 104°
2026-05-05 12:09 39.30153 22.45937 18709 ft 348 kts 104°
2026-05-05 12:09 39.29405 22.48904 18477 ft 347 kts 104°
2026-05-05 12:09 39.28663 22.51850 18230 ft 344 kts 104°
2026-05-05 12:09 39.27925 22.54785 17959 ft 343 kts 104°
2026-05-05 12:10 39.27190 22.57700 17689 ft 341 kts 104°
2026-05-05 12:10 39.26456 22.60602 17429 ft 339 kts 104°
2026-05-05 12:10 39.25725 22.63486 17162 ft 337 kts 104°
2026-05-05 12:10 39.24997 22.66350 16899 ft 335 kts 104°
2026-05-05 12:11 39.24272 22.69197 16642 ft 333 kts 104°
2026-05-05 12:11 39.23549 22.72027 16383 ft 331 kts 104°
2026-05-05 12:11 39.22832 22.74838 16134 ft 329 kts 104°
2026-05-05 12:11 39.22123 22.77636 15873 ft 327 kts 104°
2026-05-05 12:12 39.21631 22.80474 15636 ft 322 kts 93°
2026-05-05 12:12 39.21495 22.83296 15391 ft 319 kts 89°
2026-05-05 12:12 39.21385 22.86144 15149 ft 317 kts 90°
2026-05-05 12:12 39.21268 22.88981 14905 ft 316 kts 90°
2026-05-05 12:13 39.21149 22.91801 14665 ft 314 kts 90°
2026-05-05 12:13 39.21031 22.94610 14426 ft 313 kts 90°
2026-05-05 12:13 39.20915 22.97406 14193 ft 312 kts 90°
2026-05-05 12:13 39.20800 23.00187 13962 ft 310 kts 90°
2026-05-05 12:14 39.20684 23.02960 13707 ft 309 kts 90°
2026-05-05 12:14 39.20568 23.05714 13444 ft 307 kts 90°
2026-05-05 12:14 39.20449 23.08458 13183 ft 306 kts 91°
2026-05-05 12:14 39.20330 23.11190 12923 ft 305 kts 90°
2026-05-05 12:15 39.20213 23.13911 12659 ft 304 kts 90°
2026-05-05 12:15 39.20097 23.16622 12409 ft 303 kts 91°
2026-05-05 12:15 39.19982 23.19325 12152 ft 301 kts 91°
2026-05-05 12:15 39.19866 23.21981 11900 ft 300 kts 91°
2026-05-05 12:16 39.19747 23.24660 11646 ft 299 kts 91°
2026-05-05 12:16 39.19628 23.27327 11395 ft 298 kts 91°
2026-05-05 12:16 39.19509 23.29986 11150 ft 297 kts 91°
2026-05-05 12:16 39.19390 23.32633 10888 ft 295 kts 91°
2026-05-05 12:17 39.19273 23.35273 10638 ft 294 kts 91°
2026-05-05 12:17 39.19155 23.37892 10428 ft 290 kts 91°
2026-05-05 12:17 39.19039 23.40477 10112 ft 288 kts 91°
2026-05-05 12:17 39.18923 23.43021 9650 ft 281 kts 91°
2026-05-05 12:18 39.18807 23.45526 9072 ft 279 kts 91°
2026-05-05 12:18 39.18692 23.48020 8500 ft 277 kts 90°
2026-05-05 12:18 39.18579 23.50490 7945 ft 276 kts 90°
2026-05-05 12:18 39.18466 23.52947 7392 ft 273 kts 90°
2026-05-05 12:19 39.18316 23.55365 6850 ft 270 kts 98°
2026-05-05 12:19 39.17518 23.57527 6334 ft 270 kts 132°
2026-05-05 12:19 39.15995 23.58817 5942 ft 260 kts 165°
2026-05-05 12:19 39.14244 23.58942 5569 ft 250 kts 195°
2026-05-05 12:20 39.12644 23.58121 5204 ft 247 kts 209°
2026-05-05 12:20 39.11120 23.57142 4828 ft 242 kts 210°
2026-05-05 12:20 39.09650 23.56168 4533 ft 233 kts 210°
2026-05-05 12:20 39.08243 23.55231 4301 ft 223 kts 210°
2026-05-05 12:21 39.06893 23.54336 4069 ft 214 kts 210°
2026-05-05 12:21 39.05602 23.53486 3874 ft 202 kts 210°
2026-05-05 12:21 39.04370 23.52678 3662 ft 197 kts 210°
2026-05-05 12:21 39.03161 23.51878 3435 ft 194 kts 213°
2026-05-05 12:22 39.02231 23.50706 3198 ft 185 kts 246°
2026-05-05 12:22 39.01970 23.49137 2979 ft 178 kts 277°
2026-05-05 12:22 39.02368 23.47686 2750 ft 172 kts 306°
2026-05-05 12:22 39.03265 23.46718 2510 ft 170 kts 334°
2026-05-05 12:23 39.04418 23.46461 2298 ft 171 kts
2026-05-05 12:23 39.05571 23.46763 2061 ft 165 kts
2026-05-05 12:23 39.06659 23.46996 1916 ft 150 kts
2026-05-05 12:23 39.07677 23.47153 1787 ft 145 kts
2026-05-05 12:24 39.08670 23.47305 1689 ft 143 kts
2026-05-05 12:24 39.09660 23.47454 1524 ft 142 kts
2026-05-05 12:24 39.10642 23.47504 1361 ft 142 kts
2026-05-05 12:24 39.11616 23.47711 1145 ft 142 kts 12°
2026-05-05 12:25 39.12550 23.48120 978 ft 142 kts 18°
2026-05-05 12:25 39.13467 23.48513 816 ft 140 kts 17°
2026-05-05 12:25 39.14389 23.48891 637 ft 139 kts 20°
2026-05-05 12:25 39.15301 23.49290 430 ft 137 kts 21°
2026-05-05 12:26 39.16198 23.49697 217 ft 136 kts 21°
2026-05-05 12:26 39.17089 23.50090 36 ft 135 kts 20°
2026-05-05 12:26 39.17820 23.50416 37 ft 72 kts 19°
2026-05-05 12:26 39.18088 23.50535 49 ft 31 kts 19°
2026-05-05 12:27 39.18277 23.50620 58 ft 27 kts 19°
2026-05-05 12:27 39.18425 23.50689 60 ft 19 kts 20°
2026-05-05 12:27 39.18511 23.50742 53 ft 8 kts 342°
2026-05-05 12:27 39.18497 23.50717 58 ft 7 kts 200°
2026-05-05 12:28 39.18439 23.50691 61 ft 12 kts 199°
2026-05-05 12:28 39.18351 23.50652 57 ft 16 kts 198°
2026-05-05 12:28 39.18209 23.50589 55 ft 24 kts 199°
2026-05-05 12:28 39.18048 23.50518 48 ft 19 kts 199°
2026-05-05 12:29 39.17957 23.50471 44 ft 9 kts 217°
2026-05-05 12:29 39.17929 23.50398 42 ft 8 kts 252°
2026-05-05 12:29 39.17930 23.50328 39 ft 10 kts 287°
2026-05-05 12:29 39.17947 23.50264 39 ft 3 kts 289°
2026-05-05 12:30 39.17948 23.50259 39 ft 0 kts 289°